Sandberg, CA

6:26 AM PDT on July 21, 2017 (GMT -0700)
Sandberg

Weather History for KSDB - March, 2012

Change the Weather History Date:

Saturday, March 24, 2012

  Actual Average Record
Temperature  
Mean Temperature 45 °F 47 °F  
Max Temperature 54 °F 55 °F 76 °F (2014)
Min Temperature 36 °F 40 °F 23 °F (1964)
Degree Days  
Heating Degree Days 20 18  
Month to date heating degree days 449 449  
Since 1 July heating degree days 3007 3208  
Cooling Degree Days 0 0  
Month to date cooling degree days 0 0  
Year to date cooling degree days 0 0  
Moisture  
Dew Point 34 °F    
Average Humidity 71    
Maximum Humidity 100    
Minimum Humidity 41    
Precipitation  
Precipitation 0.00 in 0.04 in 0.46 in (1994)
Month to date precipitation 0.69 1.43  
Year to date precipitation 1.49 7.08  
Since 1 July precipitation 3.99  
Sea Level Pressure  
Sea Level Pressure 29.88 in    
Wind  
Wind Speed 18 mph (South)    
Max Wind Speed 26 mph    
Max Gust Speed 35 mph    
Visibility 8 miles    
Events Fog    
T = Trace of Precipitation, MM = Missing Value Source: NWS Daily Summary

Daily Weather History Graph

Daily Weather History Graph

Search for Another Location

Airport or City:

Trip Planner

Search our weather history database for the weather conditions in past years. The results will help you decide how hot, cold, wet, or windy it might be!

Date:

Astronomy

Mar. 24, 2012 Rise Set
Actual Time 6:52 AM PDT 7:10 PM PDT
Civil Twilight 6:26 AM PDT 7:35 PM PDT
Nautical Twilight 5:57 AM PDT 8:05 PM PDT
Astronomical Twilight 5:27 AM PDT 8:35 PM PDT
Moon 7:40 AM PDT (3/24) 9:25 PM PDT (3/24)
Length of Visible Light 13h 08m
Length of Day
12h 18m
Waxing Crescent, 4% of the Moon is Illuminated
Mar 24
Waxing Crescent
Mar 30
First Quarter
Apr 6
Full
Apr 13
Last Quarter
Apr 21
New

Hourly Weather History & Observations

Time (PDT) Temp. Windchill Dew Point Humidity Pressure Visibility Wind Dir Wind Speed Gust Speed Precip Events Conditions
12:48 AM 42.1 °F 35.2 °F 25.0 °F 51% 29.93 in 10.0 mi South 12.7 mph - N/A   Clear
1:48 AM 42.1 °F 34.9 °F 28.0 °F 58% 29.91 in 10.0 mi South 13.8 mph - N/A   Clear
2:48 AM 42.1 °F 34.5 °F 30.0 °F 62% 29.89 in 10.0 mi South 15.0 mph - N/A   Clear
3:48 AM 41.0 °F 33.5 °F 32.0 °F 70% 29.88 in 10.0 mi South 13.8 mph - N/A   Clear
4:48 AM 41.0 °F 33.5 °F 33.1 °F 73% 29.88 in 10.0 mi South 13.8 mph - N/A   Clear
5:48 AM 39.9 °F 32.1 °F 34.0 °F 79% 29.89 in 10.0 mi South 13.8 mph - N/A   Clear
6:48 AM 39.9 °F 32.5 °F 34.0 °F 79% 29.90 in 10.0 mi South 12.7 mph - N/A   Clear
7:48 AM 41.0 °F 33.9 °F 34.0 °F 76% 29.91 in 10.0 mi South 12.7 mph - N/A   Clear
8:48 AM 45.0 °F 38.2 °F 37.0 °F 74% 29.91 in 10.0 mi South 15.0 mph - N/A   Partly Cloudy
9:48 AM 46.9 °F - 37.9 °F 71% 29.91 in 10.0 mi South 18.4 mph 25.3 mph N/A   Clear
10:48 AM 46.9 °F - 39.9 °F 77% 29.91 in 10.0 mi South 23.0 mph 29.9 mph N/A   Partly Cloudy
11:05 AM 48.2 °F - 39.2 °F 71% 29.97 in 10.0 mi South 17.3 mph 31.1 mph N/A   Partly Cloudy
11:48 AM 48.0 °F - 39.9 °F 74% 29.91 in 10.0 mi South 21.9 mph 27.6 mph N/A   Partly Cloudy
12:48 PM 51.1 °F - 36.0 °F 56% 29.89 in 10.0 mi South 20.7 mph 32.2 mph N/A   Clear
1:48 PM 52.0 °F - 28.0 °F 40% 29.87 in 10.0 mi South 20.7 mph 28.8 mph N/A   Clear
2:48 PM 52.0 °F - 33.1 °F 49% 29.85 in 10.0 mi South 20.7 mph 29.9 mph N/A   Clear
3:48 PM 54.0 °F - 34.0 °F 47% 29.83 in 10.0 mi South 19.6 mph 29.9 mph N/A   Clear
4:48 PM 51.1 °F - 30.0 °F 44% 29.83 in 10.0 mi SSW 19.6 mph 29.9 mph N/A   Clear
5:48 PM 48.9 °F - 26.1 °F 41% 29.83 in 10.0 mi South 24.2 mph 33.4 mph N/A   Clear
6:48 PM 45.0 °F 37.4 °F 33.1 °F 63% 29.83 in 10.0 mi SSW 18.4 mph 27.6 mph N/A   Clear
7:48 PM 42.1 °F 33.9 °F 34.0 °F 73% 29.84 in 10.0 mi SSW 17.3 mph 26.5 mph N/A   Clear
8:14 PM 41.0 °F 32.2 °F 35.6 °F 81% 29.88 in 10.0 mi SSW 18.4 mph 24.2 mph N/A   Mostly Cloudy
8:48 PM 39.0 °F 29.6 °F 34.0 °F 82% 29.84 in 10.0 mi South 18.4 mph 23.0 mph N/A   Overcast
9:05 PM 37.4 °F 28.2 °F 33.8 °F 87% 29.89 in 10.0 mi South 16.1 mph 23.0 mph N/A   Scattered Clouds
9:29 PM 37.4 °F - 33.8 °F 87% 29.89 in 10.0 mi North - - N/A   Partly Cloudy
9:48 PM 37.0 °F 28.1 °F 35.1 °F 93% 29.85 in 10.0 mi South 15.0 mph - N/A   Mostly Cloudy
9:53 PM 37.4 °F 27.8 °F 35.6 °F 93% 29.89 in 10.0 mi South 17.3 mph 23.0 mph N/A   Mostly Cloudy
10:13 PM 37.4 °F 27.5 °F 35.6 °F 93% 29.89 in 1.5 mi South 18.4 mph 25.3 mph N/A   Overcast
10:15 PM 37.4 °F 27.2 °F 35.6 °F 93% 29.89 in 0.8 mi South 19.6 mph - N/A   Overcast
10:20 PM 37.4 °F 26.9 °F 35.6 °F 93% 29.89 in 0.2 mi South 20.7 mph 27.6 mph N/A Fog Fog
10:48 PM 37.0 °F 26.4 °F 36.0 °F 96% 29.83 in 0.2 mi South 20.7 mph 29.9 mph N/A Fog Fog
11:48 PM 36.0 °F 24.2 °F 36.0 °F 100% 29.81 in 0.2 mi South 24.2 mph 33.4 mph N/A Fog Fog